Location: Saint Peter Port
(49.4500°N, 2.5330°W)
Time: 07:24:18
(UTC+01:00)

Cosmos 2242 Rocket - Visible Passes

Search period start: 02 October 2014 00:00
Search period end: 12 October 2014 00:00
Orbit: 621 x 652 km, 82.5° (Epoch: 30 September)

Date Brightness Start Highest point End Pass type
(mag) Time Alt. Az. Time Alt. Az. Time Alt. Az.
02 Oct 6.6 06:24:25 10° NNE 06:27:45 19° ENE 06:31:04 10° ESE visible
02 Oct 3.5 20:40:04 10° S 20:44:32 80° E 20:49:04 10° NNE visible
02 Oct 6.6 22:21:02 10° W 22:23:25 14° WNW 22:25:49 10° NNW visible
03 Oct 5.0 19:26:32 10° SE 19:29:37 19° E 19:32:45 10° NE visible
03 Oct 4.4 21:03:05 10° SSW 21:07:27 53° WNW 21:11:53 10° N visible
04 Oct 4.2 19:48:10 10° SSE 19:52:13 35° E 19:56:20 10° NNE visible
04 Oct 5.6 21:26:38 10° SW 21:30:31 28° WNW 21:34:27 10° N visible
05 Oct 6.7 05:55:02 10° NNE 05:58:05 17° ENE 06:01:07 10° ESE visible
05 Oct 3.5 20:10:31 10° S 20:14:57 69° E 20:19:28 10° NNE visible
05 Oct 6.5 21:50:56 10° WSW 21:53:44 16° WNW 21:56:33 10° NNW visible
06 Oct 5.8 06:17:13 10° N 06:21:17 30° ENE 06:25:20 10° SE visible
06 Oct 4.1 20:33:24 10° SSW 20:37:50 61° WNW 20:42:21 10° N visible
07 Oct 4.5 06:39:48 10° N 06:44:20 56° ENE 06:48:50 10° SSE visible
07 Oct 4.4 19:18:46 10° SSE 19:22:41 30° E 19:26:39 10° NNE visible
07 Oct 5.4 20:56:50 10° SW 21:00:52 32° WNW 21:04:58 10° N visible
08 Oct 6.8 05:25:43 10° NNE 05:28:24 15° ENE 05:31:05 10° E visible
08 Oct 3.6 19:40:59 10° S 19:45:23 59° E 19:49:52 10° NNE visible
08 Oct 6.4 21:20:55 10° WSW 21:24:03 18° WNW 21:27:13 10° NNW visible
09 Oct 6.0 05:47:44 10° N 05:51:39 27° ENE 05:55:31 10° SE visible
09 Oct 3.9 20:03:45 10° SSW 20:08:14 71° WNW 20:12:48 10° N visible
09 Oct 7.1 21:46:57 10° WNW 21:47:24 10° WNW 21:47:51 10° NW visible
10 Oct 4.8 06:10:15 10° N 06:14:44 49° ENE 06:19:10 10° SSE visible
10 Oct 5.2 20:27:03 10° SW 20:31:14 37° WNW 20:35:29 10° N visible
11 Oct 6.9 04:56:28 10° NNE 04:58:43 13° ENE 05:00:58 10° E visible
11 Oct 3.7 06:33:03 10° N 06:37:40 87° W 06:42:14 10° S visible
11 Oct 3.8 19:11:28 10° S 19:15:49 51° E 19:20:14 10° NNE visible
11 Oct 6.3 20:50:58 10° WSW 20:54:23 21° WNW 20:57:50 10° NNW visible
